[[{"header":{"parameterUnit":"m.s-1","parameterCategory":1,"la1":30.2991,"la2":30.254,"lo1":-89.0895,"lo2":-89.0444,"dy":0.0017,"dx":0.0017,"nx":28,"ny":28,"refTime":"2024-04-16T03:00:00:Z","depth":0,"parameterNumber":2,"parameterNumberName":"U-component_of_WINDS"},"data":[0,0,0,0,0,0,0,0,0,0,0,0,0,0,0,0,0,0,0,0,0,0,0,0,0,0,0,0,0,0,0,0,0,0,0,0,0,0,0,0,0,0,0,0,0,0,0,0,0,0,0,0,0,0,0,0,0,0,-1.3695,-1.3694,0,-1.3569,-1.3567,-1.3566,-1.3474,-1.3473,-1.3472,-1.3471,-1.3338,-1.3335,-1.3332,0,0,0,0,0,0,0,0,0,0,0,0,0,-1.3855,-1.3853,-1.3696,-1.3694,-1.3692,-1.3569,-1.3567,-1.3565,-1.3474,-1.3473,-1.3472,-1.3471,-1.3339,-1.3335,-1.3332,0,0,0,0,0,0,0,0,0,0,0,0,0,-1.3763,-1.3852,-1.3696,-1.3632,-1.3625,-1.3569,-1.3567,-1.3565,-1.3474,-1.3473,-1.3472,-1.347,-1.334,-1.3336,-1.3331,-1.3328,0,0,-1.3318,-1.3317,0,0,0,0,0,0,0,0,-1.3768,-1.3757,-1.3643,-1.3636,-1.3628,-1.3536,-1.3574,-1.3485,-1.3474,-1.3531,-1.3471,-1.347,-1.3404,-1.3395,-1.3373,-1.3322,-1.3316,-1.3318,-1.3315,-1.3314,-1.3312,0,0,0,0,0,0,0,-1.3775,-1.3762,-1.3645,-1.3641,-1.3632,-1.3608,-1.3594,-1.3557,-1.3476,-1.3526,-1.3519,-1.3505,-1.34,-1.3378,-1.3369,-1.3314,-1.3318,-1.3314,-1.3312,-1.331,-1.3253,-1.3254,0,0,0,0,0,0,-1.3792,-1.3768,-1.3649,-1.3641,-1.3697,-1.3606,-1.359,-1.3567,-1.3476,-1.3461,-1.3507,-1.3502,-1.3385,-1.3375,-1.3364,-1.3354,-1.3314,-1.331,-1.3307,-1.3252,-1.3253,-1.3254,0,0,0,0,0,0,-1.3795,-1.3782,-1.3654,-1.3703,-1.3685,-1.3605,-1.3579,-1.3565,-1.3542,-1.3461,-1.3446,-1.3499,-1.3384,-1.337,-1.3338,-1.3348,-1.3308,-1.3304,-1.3251,-1.3252,-1.3254,-1.3334,0,0,0,0,0,0,-1.38,-1.3784,-1.3782,-1.3703,-1.3682,-1.3631,-1.358,-1.3563,-1.3535,-1.3528,-1.345,-1.3436,-1.3382,-1.3345,-1.3334,-1.3341,-1.3301,-1.325,-1.3252,-1.3253,-1.333,-1.3338,-1.3345,0,0,0,0,0,-1.3806,-1.3809,-1.3783,-1.3769,-1.3679,-1.3632,-1.362,-1.3559,-1.3537,-1.3534,-1.3482,-1.3438,-1.3349,-1.3342,-1.3329,-1.3336,-1.3249,-1.3251,-1.3253,-1.3327,-1.3336,-1.3345,0,0,0,0,0,0,-1.389,-1.3798,-1.3767,-1.3745,-1.3697,-1.3617,-1.3611,-1.3572,-1.3528,-1.3523,-1.3448,-1.3431,-1.3407,-1.3368,-1.3362,-1.3327,-1.3293,-1.3293,-1.3354,-1.3362,-1.337,-1.3379,-1.3297,0,0,0,0,0,-1.3907,-1.3877,-1.3797,-1.3785,-1.3763,-1.3692,-1.3669,-1.3627,-1.3573,-1.3552,-1.3498,-1.3447,-1.3407,-1.3383,-1.3342,-1.3324,-1.3305,-1.3322,-1.333,-1.3336,-1.3337,-1.3324,-1.333,-1.3262,-1.3262,-1.3262,0,0,-1.3939,-1.3885,-1.387,-1.3801,-1.3759,-1.3729,-1.3675,-1.3646,-1.3622,-1.3547,-1.3513,-1.3472,-1.341,-1.3385,-1.3372,-1.3352,-1.3351,-1.3339,-1.3345,-1.3342,-1.3327,-1.3333,-1.3339,-1.3264,-1.3263,-1.3263,0,0,-1.3983,-1.394,-1.3924,-1.3884,-1.3821,-1.3774,-1.3771,-1.3696,-1.3666,-1.3631,-1.3574,-1.3545,-1.3479,-1.3437,-1.3407,-1.3436,-1.3394,-1.3425,-1.3463,-1.3452,-1.3457,-1.3461,-1.3471,-1.3475,-1.3426,-1.3426,-1.3426,0,-1.4031,-1.3984,-1.3921,-1.3895,-1.3866,-1.3799,-1.3782,-1.3745,-1.3672,-1.3653,-1.3633,-1.3548,-1.3502,-1.3466,-1.3474,-1.3452,-1.3445,-1.3433,-1.3461,-1.3465,-1.3468,-1.3476,-1.348,-1.343,-1.343,-1.3429,-1.3429,0,-1.4046,-1.4015,-1.401,-1.3942,-1.3912,-1.3892,-1.3825,-1.3802,-1.3762,-1.3717,-1.3682,-1.3625,-1.3571,-1.3559,-1.352,-1.3518,-1.3508,-1.3476,-1.344,-1.348,-1.3486,-1.3489,-1.3436,-1.3435,-1.3433,-1.3432,0,0,-1.4138,-1.4037,-1.4036,-1.4004,-1.3931,-1.3905,-1.3881,-1.3829,-1.3811,-1.3763,-1.374,-1.3686,-1.3656,-1.3622,-1.3578,-1.3568,-1.3593,-1.3536,-1.3534,-1.3548,-1.3586,-1.361,-1.3615,-1.3565,-1.3566,-1.3566,-1.3591,0,-1.4169,-1.4123,-1.4066,-1.4039,-1.4009,-1.3945,-1.3923,-1.3875,-1.3833,-1.38,-1.3752,-1.3715,-1.3678,-1.3658,-1.3645,-1.3593,-1.36,-1.3591,-1.3542,-1.3541,-1.3558,-1.3618,-1.3643,-1.3669,-1.3593,-1.3593,-1.3594,0,-1.42,-1.4157,-1.4127,-1.4056,-1.4041,-1.4023,-1.3971,-1.3941,-1.3886,-1.3855,-1.3818,-1.3771,-1.3741,-1.371,-1.3667,-1.3662,-1.3639,-1.3611,-1.361,-1.3602,-1.3569,-1.3611,-1.3676,-1.368,-1.3597,-1.3597,-1.3597,0,-1.4269,-1.4203,-1.4177,-1.4152,-1.4069,-1.4057,-1.4022,-1.3965,-1.3938,-1.3893,-1.3874,-1.3826,-1.3799,-1.3762,-1.3702,-1.3685,-1.3665,-1.3629,-1.3638,-1.3639,-1.3635,-1.3636,-1.3697,-1.3623,-1.3623,-1.3623,-1.3622,0,-1.4309,-1.4294,-1.4207,-1.419,-1.417,-1.4105,-1.4086,-1.4045,-1.3995,-1.3969,-1.391,-1.3887,-1.381,-1.3777,-1.373,-1.3701,-1.3689,-1.3663,-1.365,-1.3667,-1.3671,-1.365,-1.3646,-1.3623,-1.3623,-1.3623,-1.3623,0,-1.4383,-1.4324,-1.4291,-1.4215,-1.4196,-1.4185,-1.4119,-1.41,-1.4055,-1.4022,-1.4011,-1.3938,-1.3897,-1.3834,-1.3773,-1.3741,-1.3719,-1.37,-1.3739,-1.3731,-1.3742,-1.3742,-1.3791,-1.3794,-1.372,-1.3721,-1.3721,0,-1.4412,-1.4398,-1.4322,-1.4301,-1.4268,-1.4234,-1.4206,-1.4141,-1.4115,-1.405,-1.4039,-1.3993,-1.3952,-1.3888,-1.383,-1.3783,-1.376,-1.3781,-1.3753,-1.377,-1.3759,-1.3761,-1.3758,-1.3787,-1.3788,-1.3789,-1.379,0,-1.447,-1.4442,-1.4405,-1.4357,-1.4326,-1.4286,-1.4242,-1.4228,-1.4153,-1.4126,-1.4083,-1.4052,-1.399,-1.3945,-1.389,-1.3852,-1.3808,-1.38,-1.3799,-1.3816,-1.3839,-1.3825,-1.3756,-1.3799,-1.3798,-1.3797,-1.3797,-1.3796,-1.4521,-1.4506,-1.445,-1.441,-1.4371,-1.4332,-1.431,-1.4263,-1.4226,-1.4172,-1.4135,-1.4094,-1.4038,-1.396,-1.3925,-1.3891,-1.3872,-1.3871,-1.3871,-1.3871,-1.3877,-1.3845,-1.3881,-1.388,-1.388,-1.388,-1.3879,0,-1.4575,-1.4536,-1.4501,-1.4442,-1.4411,-1.4375,-1.4324,-1.43,-1.4265,-1.4218,-1.4179,-1.413,-1.4086,-1.4024,-1.3975,-1.396,-1.3939,-1.3949,-1.3949,-1.3941,-1.3897,-1.3902,-1.3967,-1.3967,-1.3967,-1.3967,-1.3967,-1.3967,-1.46,-1.4572,-1.4537,-1.4489,-1.4449,-1.441,-1.4384,-1.4348,-1.4309,-1.4257,-1.422,-1.4181,-1.4127,-1.4074,-1.4031,-1.4014,-1.3998,-1.4015,-1.3991,-1.3952,-1.3944,-1.3936,-1.394,-1.4012,-1.4012,-1.4037,-1.4038,-1.4038]},{"header":{"parameterUnit":"m.s-1","parameterCategory":1,"la1":30.2991,"la2":30.254,"lo1":-89.0895,"lo2":-89.0444,"dy":0.0017,"dx":0.0017,"nx":28,"ny":28,"refTime":"2024-04-16T03:00:00:Z","depth":0,"parameterNumber":3,"parameterNumberName":"V-component_of_WINDS"},"data":[0,0,0,0,0,0,0,0,0,0,0,0,0,0,0,0,0,0,0,0,0,0,0,0,0,0,0,0,0,0,0,0,0,0,0,0,0,0,0,0,0,0,0,0,0,0,0,0,0,0,0,0,0,0,0,0,0,0,3.5131,3.5131,0,3.5132,3.5132,3.5132,3.5177,3.5179,3.518,3.5181,3.5176,3.5175,3.5174,0,0,0,0,0,0,0,0,0,0,0,0,0,3.5167,3.5166,3.5131,3.5131,3.5131,3.5132,3.5132,3.5132,3.5177,3.5179,3.518,3.5181,3.5176,3.5175,3.5173,0,0,0,0,0,0,0,0,0,0,0,0,0,3.5157,3.5165,3.5131,3.5154,3.5156,3.5132,3.5132,3.5132,3.5177,3.5179,3.518,3.5182,3.5177,3.5175,3.5173,3.5125,0,0,3.5167,3.5167,0,0,0,0,0,0,0,0,3.5158,3.5156,3.515,3.5152,3.5155,3.5156,3.5143,3.5129,3.5176,3.5169,3.5181,3.5183,3.5168,3.5167,3.5163,3.5125,3.5125,3.5167,3.5166,3.5165,3.5165,0,0,0,0,0,0,0,3.5158,3.5156,3.5131,3.515,3.5153,3.5163,3.5164,3.514,3.5158,3.5169,3.5173,3.5173,3.5169,3.5164,3.5163,3.5125,3.5167,3.5166,3.5165,3.5164,3.5053,3.5051,0,0,0,0,0,0,3.5156,3.5156,3.5131,3.5131,3.5161,3.5161,3.5162,3.5154,3.5158,3.5161,3.5171,3.5175,3.5167,3.5165,3.5163,3.511,3.5165,3.5164,3.5163,3.5055,3.5052,3.505,0,0,0,0,0,0,3.5157,3.5154,3.5131,3.5145,3.5143,3.5159,3.5149,3.5153,3.5148,3.516,3.5162,3.5163,3.5168,3.5165,3.5136,3.511,3.5163,3.5161,3.5057,3.5054,3.5051,3.5002,0,0,0,0,0,0,3.5158,3.5154,3.5136,3.5144,3.5142,3.5104,3.5148,3.5152,3.5146,3.515,3.5153,3.5155,3.5169,3.5138,3.5134,3.5109,3.516,3.5059,3.5055,3.5052,3.5006,3.4998,3.4991,0,0,0,0,0,3.5159,3.512,3.5135,3.5131,3.512,3.5103,3.5101,3.512,3.5143,3.5126,3.5134,3.5155,3.5114,3.5135,3.513,3.5104,3.5061,3.5056,3.5052,3.5009,3.5,3.4991,0,0,0,0,0,0,3.5105,3.5121,3.5138,3.51,3.51,3.5111,3.5088,3.5109,3.51,3.5105,3.5127,3.5127,3.5095,3.5096,3.5119,3.506,3.5091,3.5086,3.506,3.5051,3.5044,3.5044,3.5158,0,0,0,0,0,3.5089,3.5075,3.5089,3.5055,3.5054,3.5071,3.5064,3.508,3.508,3.5079,3.5085,3.5082,3.507,3.506,3.5049,3.5007,3.5009,3.4987,3.498,3.4974,3.4969,3.495,3.4941,3.5037,3.5037,3.5037,0,0,3.5055,3.5062,3.5051,3.5044,3.5046,3.5031,3.5071,3.5051,3.5041,3.5075,3.5049,3.5053,3.5053,3.5018,3.5003,3.5018,3.4943,3.4968,3.4963,3.4962,3.4945,3.4936,3.4928,3.5034,3.5035,3.5035,0,0,3.4986,3.4989,3.4963,3.4965,3.4969,3.4981,3.4975,3.4983,3.4988,3.4963,3.499,3.4977,3.4953,3.4953,3.495,3.4886,3.4906,3.4881,3.4842,3.4824,3.4816,3.481,3.4789,3.4781,3.4877,3.4876,3.4876,0,3.4942,3.4922,3.4946,3.4927,3.4924,3.4958,3.4932,3.4932,3.4931,3.4928,3.4946,3.4921,3.4922,3.489,3.4875,3.487,3.4865,3.4881,3.4816,3.481,3.4804,3.4784,3.4776,3.4874,3.4874,3.4874,3.4875,0,3.487,3.4855,3.4833,3.4835,3.4829,3.4806,3.4827,3.4819,3.4836,3.4846,3.4822,3.4826,3.4818,3.4811,3.4825,3.4781,3.4791,3.4812,3.4844,3.4791,3.4774,3.4766,3.487,3.4871,3.4871,3.4872,0,0,3.4763,3.4783,3.4774,3.4777,3.4786,3.4775,3.4754,3.4749,3.4743,3.4741,3.4726,3.4708,3.4729,3.4725,3.474,3.4724,3.4677,3.4748,3.4748,3.4736,3.4632,3.4617,3.4608,3.4691,3.469,3.4688,3.4633,0,3.4698,3.4666,3.469,3.4653,3.4642,3.4677,3.466,3.4663,3.4674,3.4665,3.4676,3.4664,3.4691,3.469,3.4676,3.4686,3.4657,3.469,3.4677,3.4676,3.4677,3.4598,3.4581,3.4528,3.4626,3.4624,3.4624,0,3.4616,3.4616,3.458,3.4596,3.4591,3.4576,3.4575,3.4566,3.4572,3.4581,3.458,3.46,3.4582,3.4614,3.459,3.4613,3.4609,3.4614,3.4612,3.4612,3.4647,3.4597,3.4511,3.4504,3.4612,3.4613,3.4614,0,3.4545,3.4535,3.4513,3.4515,3.4531,3.452,3.4526,3.4534,3.4531,3.453,3.4529,3.4524,3.4522,3.4519,3.4539,3.456,3.4513,3.4546,3.452,3.452,3.4508,3.4509,3.4422,3.4504,3.4505,3.4505,3.4505,0,3.447,3.4447,3.4482,3.4469,3.4445,3.4473,3.4448,3.4457,3.4465,3.4454,3.4483,3.4472,3.4499,3.4491,3.4506,3.4485,3.4483,3.449,3.4495,3.4488,3.4488,3.4486,3.4491,3.4503,3.4503,3.4503,3.4504,0,3.4385,3.4408,3.4387,3.4407,3.4411,3.4393,3.4409,3.4398,3.4412,3.4399,3.4397,3.4419,3.4411,3.4431,3.4425,3.4436,3.4407,3.4417,3.4406,3.441,3.4384,3.4387,3.4294,3.4284,3.4371,3.437,3.437,0,3.4336,3.432,3.434,3.4336,3.4342,3.4335,3.4333,3.4361,3.4358,3.4366,3.4354,3.435,3.4348,3.4335,3.4349,3.4346,3.4357,3.4325,3.4356,3.4352,3.4359,3.436,3.436,3.4318,3.4317,3.4316,3.4315,0,3.4247,3.4261,3.4258,3.4261,3.426,3.4262,3.4266,3.4261,3.4291,3.4287,3.4282,3.428,3.4278,3.4274,3.4275,3.4281,3.4303,3.4306,3.43,3.4293,3.4289,3.4293,3.439,3.4307,3.4308,3.4309,3.4309,3.4309,3.418,3.4169,3.4183,3.418,3.4187,3.4192,3.4184,3.4199,3.4196,3.4198,3.4214,3.4206,3.4216,3.4221,3.4225,3.4219,3.4234,3.4225,3.4223,3.4221,3.4217,3.429,3.4219,3.4219,3.422,3.422,3.422,0,3.4094,3.4106,3.4104,3.4112,3.411,3.4135,3.4142,3.4139,3.4133,3.4141,3.4141,3.4136,3.4134,3.415,3.415,3.4143,3.4153,3.4142,3.4143,3.4145,3.4203,3.4209,3.4134,3.4134,3.4134,3.4134,3.4134,3.4134,3.405,3.4034,3.4049,3.4038,3.4049,3.4044,3.4047,3.4052,3.406,3.4054,3.4054,3.4066,3.4078,3.408,3.4079,3.4084,3.4084,3.4069,3.4077,3.4132,3.414,3.4148,3.4154,3.4068,3.4068,3.402,3.4019,3.4019]}]]